COSMOS 1275 DEB

Satellite information

Favourite Embed

Satellite Type and Status

DEBRISIN ORBIT

Key statistics

Satellite COSMOS 1275 DEB at a glance.

Uptime

16207

Days in orbit

Revolutions

≈ 14.2

Per day

Orbit

LEO

Low Earth Orbit

Inclination

82.8

Latest

Satellite identification and parameters

Extended collection of information and parameters for COSMOS 1275 DEB.

Object identification

Identified? True

Debris? True

Object name: COSMOS 1275 DEB

International designator: 1981-053JB

Object number (NORAD): 14406

Object ID (CCSDS): 14406

Country: COMMONWEALTH OF INDEPENDENT STATES (CIS)

Current information (Y/N): Y

RCS size: SMALL

Orbital parameters

Period: 101.385 minutes

Inclination: 82.8389 deg

SMA: 7202.384 km

Apoapsis: 835.749 km

Periapsis: 812.748 km

RAAN: 222.8298 deg

Eccentricy: 0.00159673

Argument of periapsis: 215.7805 deg

Mean anomaly: 271.6961 deg

Mean motion: 14.20327119 rev/day

Mean motion (dot): 0.00004444 rev/day2

B* drag term: 0.0020669749 1/REarth

Two-line elements (TLE)

Creation date: Oct. 16, 2025, 6:34 p.m.

Reference frame: TEME

Reference center: EARTH

Epoch: Oct. 16, 2025, 5:47 a.m. UTC

TLE line 0: 0 COSMOS 1275 DEB

TLE line 1: 1 14406U 81053JB 25289.24113516 .00004444 00000-0 20670-2 0 9994

TLE line 2: 2 14406 82.8389 222.8298 0015967 215.7805 271.6961 14.20327119187169

Live tracking on map

Real-time ground track for satellite COSMOS 1275 DEB.

In-orbit conjunctions

A list of the most updated potential collisions computed for object COSMOS 1275 DEB.

Target Orbit TCA Probability of collision Miss distance Type
CZ-6A DEB SSO 2025-05-16 13:52:33 0.0001595172 247.0 (m) DEBRIS
NOAA 16 DEB SSO 2025-05-03 09:53:26 0.0002320304 75.0 (m) DEBRIS
COSMOS 1275 DEB LEO 2025-03-24 08:49:45 0.0002280419 62.0 (m) DEBRIS
SL-16 R/B LEO 2025-01-28 11:13:43 0.0001896602 227.0 (m) ROCKET BODY
COBE DEB SSO 2024-11-06 09:44:58 0.001117488 25.0 (m) DEBRIS

Associated space launch

Navigation satellite providing location information for the Tsiklon-B navigation system

COSMOS 1275 DEB was lifted into orbit during the mission ‘Kosmos-3M | Parus 27’, on board a Kosmos-3M space rocket.

The launch took place on June 4, 1981, 3:41 p.m. from 132/2.

For more information about the launch, click the button.

Launch to space Kosmos-3M | Parus 27
Kosmos-3M | Parus 27

Agency: N/A

Status: Launch Successful

Launch date: June 4, 1981, 3:41 p.m. UTC

Rocket: Kosmos-3M

Launch pad: 132/2

Location: Plesetsk Cosmodrome, Russian Federation

...

Latest news about this satellite

There are no fresh news available about this satellite. Check back as we update our databases every day.


Newsletter sign-up

Weekly statistics, charts and insights to help you stay on top of the space industry.